FW6587 Weather Reports


time (UTC)temp
C
wind
direction
speed
KPH
gust
KPH
rain 1hr
cm
rain 24hr
cm
rain mn
cm
humidity
%
barometer
mb
20221128090054 6 0 0.0 4.8 0.00 0.00 0.00 29 1011.6
20221128085548 6 360 0.0 4.8 0.00 0.00 0.00 29 1011.4
20221128085044 6 360 0.0 6.4 0.00 0.00 0.00 29 1011.5
20221128084556 6 360 0.0 6.4 0.00 0.00 0.00 29 1011.6
20221128084044 6 360 0.0 4.8 0.00 0.00 0.00 28 1011.6
20221128083545 6 360 0.0 4.8 0.00 0.00 0.00 29 1011.8
20221128083108 6 360 0.0 19.3 0.00 0.00 0.00 29 1011.8
20221128082545 6 360 0.0 19.3 0.00 0.00 0.00 29 1011.9
20221128082044 6 360 0.0 4.8 0.00 0.00 0.00 30 1011.9
20221128081552 6 360 1.6 8.0 0.00 0.00 0.00 30 1011.8
20221128081048 6 360 1.6 8.0 0.00 0.00 0.00 30 1011.8
20221128080544 6 360 1.6 8.0 0.00 0.00 0.00 30 1011.6
20221128080100 5 0 1.6 6.4 0.00 0.00 0.00 31 1011.7
20221128075544 5 360 3.2 6.4 0.00 0.00 0.00 31 1011.5
20221128075048 5 360 0.0 4.8 0.00 0.00 0.00 31 1011.9
20221128074556 5 0 0.0 4.8 0.00 0.00 0.00 32 1011.8
20221128074043 5 360 0.0 8.0 0.00 0.00 0.00 32 1012.1
20221128073545 5 360 0.0 8.0 0.00 0.00 0.00 33 1012.2
20221128073106 5 0 1.6 8.0 0.00 0.00 0.00 34 1012.4
20221128072544 5 360 1.6 4.8 0.00 0.00 0.00 34 1012.3
20221128072044 5 360 1.6 6.4 0.00 0.00 0.00 35 1012.5
20221128071604 5 0 1.6 6.4 0.00 0.00 0.00 36 1012.7
20221128071045 5 0 1.6 6.4 0.00 0.00 0.00 36 1012.7
20221128070544 5 0 0.0 4.8 0.00 0.00 0.00 36 1012.7
20221128070103 5 360 0.0 6.4 0.00 0.00 0.00 36 1012.7
20221128065545 5 0 0.0 8.0 0.00 0.00 0.00 36 1012.7
20221128065047 5 360 0.0 8.0 0.00 0.00 0.00 36 1012.8
20221128064605 5 360 0.0 4.8 0.00 0.00 0.00 36 1012.5
20221128064045 5 0 0.0 6.4 0.00 0.00 0.00 36 1012.8
20221128063544 5 0 0.0 6.4 0.00 0.00 0.00 36 1013.0
20221128063057 4 360 1.6 14.5 0.00 0.00 0.00 37 1012.9
20221128062544 3 0 0.0 14.5 0.00 0.00 0.00 37 1013.1
20221128062044 3 360 0.0 4.8 0.00 0.00 0.00 39 1013.3
20221128061555 3 360 1.6 4.8 0.00 0.00 0.00 39 1013.2
20221128061043 3 0 1.6 4.8 0.00 0.00 0.00 40 1013.3
20221128060546 2 0 0.0 3.2 0.00 0.00 0.00 40 1013.6
20221128060052 2 360 0.0 3.2 0.00 0.00 0.00 41 1013.5
20221128055545 2 360 0.0 3.2 0.00 0.00 0.00 40 1013.6
20221128055043 2 360 0.0 4.8 0.00 0.00 0.00 40 1013.5
20221128054602 3 0 1.6 4.8 0.00 0.00 0.00 40 1013.6
20221128054045 3 0 0.0 3.2 0.00 0.00 0.00 40 1013.7
20221128053544 3 360 0.0 6.4 0.00 0.00 0.00 38 1013.6
20221128053058 3 360 1.6 6.4 0.00 0.00 0.00 37 1013.7
20221128052544 3 360 0.0 1.6 0.00 0.00 0.00 38 1013.7
20221128052045 3 0 0.0 4.8 0.00 0.00 0.00 36 1013.6
20221128051556 3 360 0.0 4.8 0.00 0.00 0.00 36 1013.6
20221128051044 3 360 0.0 3.2 0.00 0.00 0.00 36 1013.4
20221128050544 3 0 0.0 6.4 0.00 0.00 0.00 37 1013.6
20221128050107 3 0 1.6 6.4 0.00 0.00 0.00 36 1013.5
20221128045545 3 360 1.6 4.8 0.00 0.00 0.00 37 1013.6
20221128045043 3 360 0.0 4.8 0.00 0.00 0.00 37 1013.5
20221128044552 4 0 0.0 4.8 0.00 0.00 0.00 36 1013.5
20221128044043 4 0 0.0 8.0 0.00 0.00 0.00 37 1013.7
20221128043546 4 0 0.0 9.7 0.00 0.00 0.00 37 1013.6
20221128043057 3 360 1.6 9.7 0.00 0.00 0.00 38 1013.6
20221128042544 3 360 1.6 12.9 0.00 0.00 0.00 39 1013.7
20221128042045 2 360 1.6 12.9 0.00 0.00 0.00 40 1013.8
20221128041600 2 360 1.6 8.0 0.00 0.00 0.00 41 1013.9
20221128041044 2 360 1.6 8.0 0.00 0.00 0.00 42 1014.4
20221128040544 1 0 1.6 8.0 0.00 0.00 0.00 42 1014.4
20221128040055 1 0 1.6 4.8 0.00 0.00 0.00 42 1014.4
20221128035547 1 360 0.0 3.2 0.00 0.00 0.00 42 1014.6
20221128035046 1 0 0.0 6.4 0.00 0.00 0.00 41 1014.1
20221128034557 1 360 1.6 6.4 0.00 0.00 0.00 42 1014.4
20221128034044 1 360 0.0 4.8 0.00 0.00 0.00 42 1014.4
20221128033545 1 360 0.0 6.4 0.00 0.00 0.00 43 1014.2
20221128033058 1 0 0.0 6.4 0.00 0.00 0.00 44 1014.5
20221128032543 1 0 1.6 6.4 0.00 0.00 0.00 46 1014.5
20221128032044 1 360 1.6 6.4 0.00 0.00 0.00 44 1014.5
20221128031600 1 360 0.0 3.2 0.00 0.00 0.00 42 1014.3
20221128031044 1 0 0.0 1.6 0.00 0.00 0.00 42 1014.0
20221128030544 1 0 0.0 1.6 0.00 0.00 0.00 42 1014.0
20221128030101 1 0 0.0 4.8 0.00 0.00 0.00 42 1014.0
20221128025547 1 0 0.0 4.8 0.00 0.00 0.00 42 1014.1
20221128025047 1 0 0.0 4.8 0.00 0.00 0.00 43 1014.2
20221128024559 1 360 1.6 4.8 0.00 0.00 0.00 42 1014.5
20221128024045 2 360 1.6 3.2 0.00 0.00 0.00 42 1014.1
20221128023546 1 0 0.0 3.2 0.00 0.00 0.00 37 1014.0
20221128023133 2 0 0.0 1.6 0.00 0.00 0.00 37 1013.8
20221128022544 2 360 0.0 1.6 0.00 0.00 0.00 36 1013.8
20221128022044 2 0 0.0 1.6 0.00 0.00 0.00 37 1013.8
20221128021604 2 0 0.0 1.6 0.00 0.00 0.00 37 1013.8
20221128021045 2 360 0.0 1.6 0.00 0.00 0.00 37 1014.1
20221128020544 2 0 0.0 1.6 0.00 0.00 0.00 37 1014.1
20221128020101 2 0 0.0 1.6 0.00 0.00 0.00 36 1014.2
20221128015544 2 0 0.0 1.6 0.00 0.00 0.00 36 1014.4
20221128015044 2 0 0.0 3.2 0.00 0.00 0.00 37 1014.5
20221128014608 3 360 0.0 3.2 0.00 0.00 0.00 36 1014.7
20221128014044 3 360 0.0 3.2 0.00 0.00 0.00 35 1015.1
20221128013543 3 0 0.0 3.2 0.00 0.00 0.00 35 1015.1
20221128013056 3 360 0.0 3.2 0.00 0.00 0.00 36 1015.3
20221128012543 3 360 1.6 3.2 0.00 0.00 0.00 35 1015.5
20221128012044 3 0 1.6 3.2 0.00 0.00 0.00 35 1015.6
20221128011601 4 0 0.0 3.2 0.00 0.00 0.00 32 1015.8
20221128011043 4 0 0.0 3.2 0.00 0.00 0.00 31 1015.8
20221128010545 4 0 0.0 1.6 0.00 0.00 0.00 29 1015.7
20221128010102 5 0 0.0 1.6 0.00 0.00 0.00 28 1015.9
20221128005545 5 0 0.0 0.0 0.00 0.00 0.00 26 1016.0
20221128005044 5 0 0.0 3.2 0.00 0.00 0.00 26 1015.8
20221128004604 5 0 0.0 3.2 0.00 0.00 0.00 27 1015.8
20221128004044 5 360 0.0 8.0 0.00 0.00 0.00 26 1015.9
20221128003544 5 0 0.0 8.0 0.00 0.00 0.00 26 1016.0
20221128003118 5 360 1.6 6.4 0.00 0.00 0.00 27 1016.2
20221128002544 5 360 1.6 6.4 0.00 0.00 0.00 30 1016.0
20221128002044 5 360 0.0 4.8 0.00 0.00 0.00 36 1016.1
20221128001556 5 0 1.6 8.0 0.00 0.00 0.00 37 1016.3
20221128001045 5 360 1.6 8.0 0.00 0.00 0.00 37 1016.3
20221128000543 5 360 0.0 1.6 0.00 0.00 0.00 38 1016.2
20221128000119 6 0 0.0 1.6 0.00 0.00 0.00 36 1016.2
20221127235547 6 0 0.0 1.6 0.00 0.00 0.00 35 1016.1
20221127235045 6 0 0.0 1.6 0.00 0.00 0.00 35 1016.0
20221127234602 7 0 0.0 1.6 0.00 0.00 0.00 34 1016.1
20221127234044 7 0 0.0 1.6 0.00 0.00 0.00 33 1016.0
20221127233544 7 0 0.0 3.2 0.00 0.00 0.00 32 1016.2
20221127233052 8 0 0.0 6.4 0.00 0.00 0.00 31 1016.1
20221127232545 8 0 1.6 6.4 0.00 0.00 0.00 30 1016.0
20221127232043 8 360 0.0 4.8 0.00 0.00 0.00 29 1016.0
20221127231552 8 360 0.0 6.4 0.00 0.00 0.00 21 1015.9
20221127231044 8 0 1.6 6.4 0.00 0.00 0.00 23 1015.8
20221127230544 8 360 0.0 4.8 0.00 0.00 0.00 25 1015.6
20221127230103 8 0 1.6 4.8 0.00 0.00 0.00 24 1015.5
20221127225546 9 360 1.6 4.8 0.00 0.00 0.00 24 1015.7
20221127225044 9 360 1.6 4.8 0.00 0.00 0.00 24 1015.7
20221127224552 9 0 0.0 4.8 0.00 0.00 0.00 24 1015.6
20221127224043 9 0 0.0 9.7 0.00 0.00 0.00 24 1015.7
20221127223543 9 360 1.6 9.7 0.00 0.00 0.00 23 1015.8
20221127223127 9 360 1.6 6.4 0.00 0.00 0.00 24 1015.8
20221127222548 10 360 1.6 12.9 0.00 0.00 0.00 23 1015.8
20221127222044 10 360 1.6 12.9 0.00 0.00 0.00 24 1015.8
20221127221558 10 360 1.6 9.7 0.00 0.00 0.00 24 1016.1
20221127221044 10 360 3.2 9.7 0.00 0.00 0.00 22 1016.2
20221127220542 10 360 1.6 9.7 0.00 0.00 0.00 23 1016.4
20221127220047 10 360 1.6 6.4 0.00 0.00 0.00 24 1016.4
20221127215545 10 360 1.6 4.8 0.00 0.00 0.00 24 1016.3
20221127215045 9 0 1.6 6.4 0.00 0.00 0.00 25 1016.5
20221127214555 8 360 1.6 6.4 0.00 0.00 0.00 26 1016.4
20221127214043 8 360 1.6 6.4 0.00 0.00 0.00 26 1016.4
20221127213550 8 360 0.0 6.4 0.00 0.00 0.00 26 1016.5
20221127213108 8 360 1.6 14.5 0.00 0.00 0.00 26 1016.4
20221127212544 8 360 4.8 17.7 0.00 0.00 0.00 27 1016.6
20221127212045 8 360 4.8 17.7 0.00 0.00 0.00 27 1016.6
20221127211552 8 360 4.8 19.3 0.00 0.00 0.00 26 1016.7
20221127211044 8 360 1.6 19.3 0.00 0.00 0.00 26 1016.8
20221127210544 8 360 3.2 14.5 0.00 0.00 0.00 25 1016.9
20221127210106 8 360 1.6 12.9 0.00 0.00 0.00 26 1017.1
20221127205545 8 360 3.2 12.9 0.00 0.00 0.00 28 1017.2
20221127205043 8 360 4.8 14.5 0.00 0.00 0.00 25 1017.1
20221127204605 8 360 4.8 16.1 0.00 0.00 0.00 26 1017.1
20221127204044 9 360 6.4 20.9 0.00 0.00 0.00 26 1017.2
20221127203549 9 360 4.8 20.9 0.00 0.00 0.00 25 1017.3
20221127203100 9 360 4.8 12.9 0.00 0.00 0.00 25 1017.4
20221127202547 9 360 3.2 9.7 0.00 0.00 0.00 27 1017.4
20221127202044 9 360 3.2 9.7 0.00 0.00 0.00 29 1017.5
20221127201616 9 0 1.6 4.8 0.00 0.00 0.00 36 1017.6
20221127201051 10 360 0.0 4.8 0.00 0.00 0.00 37 1017.6
20221127200543 9 360 1.6 6.4 0.00 0.00 0.00 37 1017.6
20221127200101 9 0 1.6 6.4 0.00 0.00 0.00 38 1017.7
20221127195543 8 0 1.6 6.4 0.00 0.00 0.00 38 1017.9
20221127195043 8 360 1.6 6.4 0.00 0.00 0.00 37 1018.0
20221127194552 8 360 1.6 6.4 0.00 0.00 0.00 40 1018.0
20221127194048 8 360 1.6 8.0 0.00 0.00 0.00 42 1018.2
20221127193543 8 360 1.6 8.0 0.00 0.00 0.00 43 1018.2
20221127193053 8 360 0.0 8.0 0.00 0.00 0.00 44 1018.1
20221127192543 8 360 0.0 4.8 0.00 0.00 0.00 43 1018.3
20221127192044 8 360 0.0 6.4 0.00 0.00 0.00 45 1018.3
20221127191606 8 360 0.0 9.7 0.00 0.00 0.00 46 1018.4
20221127191049 8 360 3.2 9.7 0.00 0.00 0.00 45 1018.5
20221127190543 8 360 1.6 8.0 0.00 0.00 0.00 46 1018.5
20221127190053 8 360 1.6 8.0 0.00 0.00 0.00 47 1018.5
20221127185547 8 360 1.6 8.0 0.00 0.00 0.00 46 1018.5
20221127185046 8 360 1.6 9.7 0.00 0.00 0.00 46 1018.6
20221127184607 7 360 3.2 9.7 0.00 0.00 0.00 48 1018.6
20221127184043 7 360 1.6 6.4 0.00 0.00 0.00 49 1018.8
20221127183545 7 0 1.6 6.4 0.00 0.00 0.00 49 1018.8
20221127183102 7 360 0.0 8.0 0.00 0.00 0.00 50 1019.1
20221127182546 6 360 1.6 8.0 0.00 0.00 0.00 51 1019.4
20221127182043 6 360 1.6 8.0 0.00 0.00 0.00 51 1019.5
20221127181601 6 360 1.6 9.7 0.00 0.00 0.00 52 1019.7
20221127181053 6 360 3.2 9.7 0.00 0.00 0.00 52 1019.7
20221127180550 6 360 3.2 14.5 0.00 0.00 0.00 53 1019.8
20221127180056 6 360 1.6 14.5 0.00 0.00 0.00 54 1020.0
20221127175547 6 360 3.2 6.4 0.00 0.00 0.00 55 1020.0
20221127175048 5 0 0.0 6.4 0.00 0.00 0.00 56 1020.2
20221127174601 6 0 1.6 8.0 0.00 0.00 0.00 54 1020.3
20221127174048 5 360 3.2 8.0 0.00 0.00 0.00 57 1020.4
20221127173548 5 360 1.6 6.4 0.00 0.00 0.00 58 1020.5
20221127173052 5 360 1.6 6.4 0.00 0.00 0.00 58 1020.6
20221127172548 5 360 0.0 12.9 0.00 0.00 0.00 59 1020.8
20221127172048 5 360 3.2 12.9 0.00 0.00 0.00 60 1020.9
20221127171557 5 360 1.6 6.4 0.00 0.00 0.00 60 1020.9
20221127171049 5 360 1.6 6.4 0.00 0.00 0.00 61 1020.8
20221127170547 5 360 1.6 8.0 0.00 0.00 0.00 62 1020.9
20221127170055 4 360 1.6 8.0 0.00 0.00 0.00 63 1021.0
20221127165547 4 360 1.6 8.0 0.00 0.00 0.00 63 1021.3
20221127165047 4 360 1.6 8.0 0.00 0.00 0.00 64 1021.3
20221127164557 4 360 1.6 8.0 0.00 0.00 0.00 65 1021.5
20221127164047 3 360 0.0 6.4 0.00 0.00 0.00 66 1021.3
20221127163547 3 360 1.6 8.0 0.00 0.00 0.00 67 1021.5
20221127163111 3 360 3.2 8.0 0.00 0.00 0.00 69 1021.3
20221127162546 3 360 0.0 14.5 0.00 0.00 0.00 70 1021.3
20221127162047 3 360 3.2 14.5 0.00 0.00 0.00 72 1021.5
20221127161610 2 360 1.6 14.5 0.00 0.00 0.00 73 1021.5
20221127161046 2 360 1.6 6.4 0.00 0.00 0.00 74 1021.5
20221127160548 2 0 0.0 4.8 0.00 0.00 0.00 75 1021.5
20221127160053 2 0 0.0 6.4 0.00 0.00 0.00 77 1021.5
20221127155551 2 0 1.6 6.4 0.00 0.00 0.00 78 1021.5
20221127155049 1 360 1.6 4.8 0.00 0.00 0.00 80 1021.7
20221127154557 1 360 0.0 4.8 0.00 0.00 0.00 81 1021.8
20221127154050 1 0 1.6 4.8 0.00 0.00 0.00 82 1022.0
20221127153548 1 360 0.0 3.2 0.00 0.00 0.00 83 1022.1
20221127153052 0 0 0.0 3.2 0.00 0.00 0.00 84 1022.0
20221127152551 0 360 0.0 3.2 0.00 0.00 0.00 85 1022.2
20221127152049 0 0 0.0 3.2 0.00 0.00 0.00 85 1022.3
20221127151552 0 0 0.0 3.2 0.00 0.00 0.00 86 1022.3
20221127151050 0 0 0.0 3.2 0.00 0.00 0.00 86 1022.3
20221127150545 0 360 0.0 3.2 0.00 0.00 0.00 86 1022.3
20221127150054 0 0 0.0 1.6 0.00 0.00 0.00 86 1022.4
20221127145544 0 0 0.0 1.6 0.00 0.00 0.00 86 1022.6
20221127145044 0 0 0.0 1.6 0.00 0.00 0.00 86 1022.4
20221127144552 0 0 0.0 1.6 0.00 0.00 0.00 85 1022.6
20221127144050 0 0 0.0 1.6 0.00 0.00 0.00 85 1022.4
20221127143550 0 0 0.0 1.6 0.00 0.00 0.00 85 1022.5
20221127143049 0 0 0.0 3.2 0.00 0.00 0.00 85 1022.6
20221127142545 -1 92 0.0 3.2 0.00 0.00 0.00 84 1022.7
20221127142044 -1 0 0.0 1.6 0.00 0.00 0.00 84 1022.6
20221127141602 0 0 0.0 0.0 0.00 0.00 0.00 84 1022.7
20221127141046 0 0 0.0 0.0 0.00 0.00 0.00 83 1022.7
20221127140545 0 0 0.0 0.0 0.00 0.00 0.00 83 1022.6
20221127140051 0 0 0.0 0.0 0.00 0.00 0.00 83 1022.7
20221127135544 0 0 0.0 0.0 0.00 0.00 0.00 83 1022.8
20221127135043 0 0 0.0 0.0 0.00 0.00 0.00 83 1022.8
20221127134605 0 0 0.0 1.6 0.00 0.00 0.00 83 1022.7
20221127134044 0 0 0.0 1.6 0.00 0.00 0.00 83 1022.7
20221127133543 0 0 0.0 1.6 0.00 0.00 0.00 83 1022.9
20221127133052 0 0 0.0 1.6 0.00 0.00 0.00 82 1022.8
20221127132544 0 0 0.0 1.6 0.00 0.00 0.00 82 1022.9
20221127132050 0 0 0.0 1.6 0.00 0.00 0.00 82 1022.8
20221127131552 0 0 0.0 1.6 0.00 0.00 0.00 82 1023.0
20221127131046 0 0 0.0 1.6 0.00 0.00 0.00 82 1023.0
20221127130546 0 0 0.0 3.2 0.00 0.00 0.00 81 1022.9
20221127130056 0 0 0.0 3.2 0.00 0.00 0.00 81 1022.9
20221127125543 0 0 0.0 3.2 0.00 0.00 0.00 81 1022.9
20221127125046 0 0 0.0 3.2 0.00 0.00 0.00 81 1022.8
20221127124557 0 0 0.0 1.6 0.00 0.00 0.00 81 1022.8
20221127124045 0 0 0.0 1.6 0.00 0.00 0.00 81 1022.7
20221127123544 0 0 0.0 1.6 0.00 0.00 0.00 81 1022.7
20221127123055 0 0 0.0 0.0 0.00 0.00 0.00 80 1022.7
20221127122544 0 0 0.0 0.0 0.00 0.00 0.00 80 1022.6
20221127122042 0 0 0.0 0.0 0.00 0.00 0.00 80 1022.7
20221127121551 0 0 0.0 0.0 0.00 0.00 0.00 80 1022.7
20221127121044 0 0 0.0 0.0 0.00 0.00 0.00 80 1022.7
20221127120544 0 0 0.0 0.0 0.00 0.00 0.00 80 1022.8
20221127120055 0 0 0.0 0.0 0.00 0.00 0.00 80 1022.9
20221127115544 0 0 0.0 0.0 0.00 0.00 0.00 80 1022.9
20221127115044 0 0 0.0 0.0 0.00 0.00 0.00 80 1022.8
20221127114553 0 0 0.0 0.0 0.00 0.00 0.00 80 1022.9
20221127114047 0 0 0.0 0.0 0.00 0.00 0.00 80 1022.9
20221127113545 1 0 0.0 0.0 0.00 0.00 0.00 80 1022.9
20221127113052 1 0 0.0 0.0 0.00 0.00 0.00 80 1022.9
20221127112547 1 0 0.0 1.6 0.00 0.00 0.00 79 1023.0
20221127112047 1 0 0.0 1.6 0.00 0.00 0.00 79 1023.0
20221127111557 1 0 0.0 1.6 0.00 0.00 0.00 79 1022.8
20221127111048 1 0 0.0 0.0 0.00 0.00 0.00 79 1022.8
20221127110545 1 0 0.0 0.0 0.00 0.00 0.00 79 1022.9
20221127110104 1 0 0.0 1.6 0.00 0.00 0.00 79 1022.9
20221127105544 1 0 0.0 1.6 0.00 0.00 0.00 79 1022.8
20221127105044 1 0 0.0 1.6 0.00 0.00 0.00 79 1023.0
20221127104613 1 0 0.0 1.6 0.00 0.00 0.00 79 1022.9
20221127104046 1 0 0.0 1.6 0.00 0.00 0.00 79 1023.1
20221127103544 1 0 0.0 1.6 0.00 0.00 0.00 79 1023.0
20221127103100 1 0 0.0 3.2 0.00 0.00 0.00 79 1023.0
20221127102547 1 0 0.0 3.2 0.00 0.00 0.00 79 1023.1
20221127102046 1 0 0.0 0.0 0.00 0.00 0.00 79 1023.1
20221127101648 1 0 0.0 1.6 0.00 0.00 0.00 79 1023.1
20221127101044 1 0 0.0 1.6 0.00 0.00 0.00 79 1023.1
20221127100544 1 0 0.0 3.2 0.00 0.00 0.00 79 1023.1
20221127100053 1 0 0.0 3.2 0.00 0.00 0.00 79 1023.1
20221127095547 1 0 0.0 3.2 0.00 0.00 0.00 79 1023.2
20221127095047 1 0 0.0 3.2 0.00 0.00 0.00 79 1023.2
20221127094637 1 0 0.0 3.2 0.00 0.00 0.00 79 1023.2
20221127094044 1 0 0.0 1.6 0.00 0.00 0.00 80 1023.2
20221127093544 1 0 0.0 1.6 0.00 0.00 0.00 80 1023.2
20221127093104 1 0 0.0 3.2 0.00 0.00 0.00 80 1023.3
20221127092550 1 0 0.0 3.2 0.00 0.00 0.00 81 1023.2
20221127092044 1 0 0.0 1.6 0.00 0.00 0.00 81 1023.3
20221127091558 1 0 0.0 1.6 0.00 0.00 0.00 81 1023.4
20221127091047 1 0 0.0 1.6 0.00 0.00 0.00 81 1023.3
20221127090545 1 0 0.0 0.0 0.00 0.00 0.00 81 1023.4